Location: Camp Cheerful - Strongsville
(41.3172°N, 81.8018°W)
Time: 01:02:18
(UTC-04:00)

ISS - Visible Passes

Search period start: 21 October 2017 00:00
Search period end: 31 October 2017 00:00
Orbit: 401 x 408 km, 51.6° (Epoch: 21 October)

Date Brightness Start Highest point End Pass type
(mag) Time Alt. Az. Time Alt. Az. Time Alt. Az.
26 Oct -0.3 07:23:14 10° SE 07:24:07 11° SE 07:25:00 10° ESE visible
28 Oct -1.5 07:12:43 10° SSW 07:15:28 26° SE 07:18:14 10° ENE visible
29 Oct -0.8 06:21:33 10° SSE 06:23:15 14° SE 06:24:58 10° E visible
30 Oct -3.4 07:03:42 10° SW 07:06:55 64° SE 07:10:09 10° ENE visible
